JINJUSAT-1B

导读

JINJUSAT-1B是一颗计划于2025年3月15日发射的人造卫星,发射国家暂未明确公布。公开信息暂未披露该卫星的具体任务定位,在人类航天发射活动不断拓展的背景下,它的入轨将为全球空间基础设施建设补充新节点,后续其应用方向与技术参数有待官方进一步公开披露,或将服务于通信、遥感等相关领域。

基本信息
目录编号:
63210
目录名称:
JINJUSAT-1B
国际标识:
2025-052A
轨道中心:
EARTH
卫星名称:
JINJUSAT-1B
卫星全名:
JINJUSAT-1B
卫星状态:
在轨 (已飞行538 天)
发射日期:
2025-03-15 UTC
国别 :
韩国 (KR)
星等 :
--
轨道信息
数据来源 国际轨道数据
星历时间: 2026-09-03T20:29:19+0800
17小时前
查看轨道信息
半长轴: 6836.781km
偏心率: 0.000426
轨道倾角: 97.388°
近地点辐角 133.720°
升交点赤经 143.463°
平近点角 226.439°
近地点: 455.731km
远地点: 461.557km
周期: 93.764分钟
每日圈数: 15.35767
详细信息
使用方式:
暂无
2D轨道图
3D轨道图
轨道高度分析图
轨道倾角分析图
轨道综合分析图
查看轨道综合分析图
交会数据列表
事件ID 空间交会对象 最接近时刻(TCA) 交会距离 交会风险概率(CRP) 交会风险指数(CRI) 操作
CDM_260903-121806-321006-420424
2026-09-03T
12:18:48+0000
0.535 km
远距离
1.715494E-4 高风险 0.8
CDM_260903-030406-172306-321024
2026-09-03T
03:04:28+0000
0.690 km
远距离
8.904344E-5 中风险 0.74
CDM_260903-075606-166806-321023
2026-09-03T
07:56:00+0000
1.153 km
极远距离
1.635875E-5 中风险 0.59
CDM_260831-111006-321006-583721
2026-08-31T
11:10:00+0000
1.167 km
极远距离
1.547765E-5 中风险 0.59
CDM_260905-054904-765506-321021
2026-09-05T
05:49:15+0000
1.242 km
极远距离
1.265908E-5 中风险 0.57
CDM_260903-172306-230506-321022
2026-09-03T
17:23:00+0000
1.315 km
极远距离
7.339827E-6 低风险 0.52
CDM_260903-185606-230506-321022
2026-09-03T
18:56:51+0000
1.360 km
极远距离
6.577316E-6 低风险 0.51
CDM_260831-021505-186506-321022
2026-08-31T
02:15:32+0000
1.565 km
极远距离
5.78751E-6 低风险 0.5
CDM_260903-154906-230506-321021
2026-09-03T
15:49:08+0000
1.509 km
极远距离
4.650035E-6 低风险 0.48
CDM_260903-203006-230506-321022
2026-09-03T
20:30:43+0000
1.662 km
极远距离
3.472896E-6 低风险 0.46